Regional Weather Roundup
Issued by NWS

Home | Current Version | Previous Version | Text Only | Print | Product List | Glossary On
Versions: 1 2 3 4 5 6 7 8 9 10 11 12 13 14 15 16 17 18 19 20 21 22 23 24 25 26 27 28 29 30 31 32 33 34 35 36 37 38 39 40 41 42 43 44 45 46 47 48 49 50
615
ASUS43 KFSD 260310
RWRSD

WEATHER ROUNDUP FOR SOUTH DAKOTA
NATIONAL WEATHER SERVICE SIOUX FALLS SD
900 PM CST SUN FEB 25 2018

NOTE: "FAIR" INDICATES FEW OR NO CLOUDS BELOW 12,000 FEET WITH NO
SIGNIFICANT WEATHER AND/OR OBSTRUCTIONS TO VISIBILITY.


SDZ001>005-009-010-012>017-260400-
NORTHWEST AND NORTH CENTRAL SOUTH DAKOTA

CITY           SKY/WX    TMP DP  RH WIND       PRES   REMARKS
BUFFALO          N/A     23   9  55 W10       29.66F WCI  12
FAITH            N/A     17  11  77 S13       29.78S WCI   4
MOBRIDGE       CLEAR     23  14  68 S7        29.77F WCI  15
$$

SDZ012>016-024>037-041>051-057-063-072>074-260400-
SOUTHWEST AND SOUTH CENTRAL SOUTH DAKOTA

CITY           SKY/WX    TMP DP  RH WIND       PRES   REMARKS
RAPID CTY ARPT CLEAR     21   6  52 S9        29.82S WCI  11
PIERRE         CLEAR     25  16  68 SW12      29.85S WCI  14
CUSTER         CLEAR     20  10  65 SW7       29.77S WCI  11
ELLSWORTH AFB  CLEAR     23   7  51 SW8       29.79F WCI  13
PHILIP         CLEAR     20  14  77 W7        29.86S WCI  11
PINE RIDGE     CLEAR    N/A N/A N/A MISG      29.89R
SPEARFISH        N/A     30  12  47 SW24G31   29.75F WCI  16
WINNER         FAIR      28  17  63 SW10      29.90S WCI  19
$$

SDZ004>011-016>023-039-040-260400-
NORTHEAST SOUTH DAKOTA

CITY           SKY/WX    TMP DP  RH WIND       PRES   REMARKS
ABERDEEN       CLEAR     14  10  84 S10       29.85S WCI   1
WATERTOWN      CLEAR     15  12  88 S8        29.86S WCI   4
BROOKINGS      CLEAR     17  13  84 S9        29.92R WCI   6
SISSETON         N/A     24  17  74 SW21      29.82S WCI   9
$$

SDZ017-020-022-023-036>040-048>070-260400-
SOUTHEAST SOUTH DAKOTA

CITY           SKY/WX    TMP DP  RH WIND       PRES   REMARKS
SIOUX FALLS    CLEAR     23  16  74 SW6       29.95S WCI  16
HURON          CLEAR     21  16  81 S9        29.90S WCI  11
CHAMBERLAIN    CLEAR     22  16  77 CALM      29.90S
MITCHELL       CLEAR     25  17  72 S10       29.94R WCI  15
YANKTON        CLEAR     27  19  72 CALM      29.98S
$$

ABBREVIATIONS USED IN REMARKS
   TC - TEMPERATURE IN CELSIUS
  WCI - WIND CHILL INDEX
   HX - HEAT INDEX
  VSB - VISIBILITY





USA.gov is the U.S. government's official web portal to all federal, state and local government web resources and services.